Retour au catalogue

STARLINK-3715

ActifCommunicationsVLEO
NORAD 52127·PAYLOAD·🇺🇸 United States

Lancé Mar 19, 2022 depuis Cape Canaveral Space Force Station

Loading…

Prochains Passages (prochaines 24 heures)

TLE

FraisSource: CelesTrak SupGP

Époque: Sep 15, 2026, 02:47 UTC

1 52127C 22029AR  26258.11645833  .00010818  00000+0  30944-3 0  2584
2 52127  53.1590 292.8119 0001299  82.5874  34.7542 15.35399486    18

Suivez STARLINK-3715 en temps réel avec AllMySat

Download on the App Store